Location: Arbon
(43.0005°N, 0.7472°E)
Time: 06:14:30
(UTC+00:00)

Transit 2A - Visible Passes

Search period start: 27 November 2020 00:00
Search period end: 07 December 2020 00:00
Orbit: 595 x 964 km, 66.7° (Epoch: 26 November)

Date Brightness Start Highest point End Pass type
(mag) Time Alt. Az. Time Alt. Az. Time Alt. Az.
27 Nov 7.1 18:15:02 10° SW 18:21:12 53° NW 18:25:55 16° NNE visible
27 Nov 8.7 20:02:43 10° WNW 20:05:46 14° NNW 20:06:26 14° NNW visible
28 Nov 6.6 17:40:38 10° SW 17:46:58 71° WNW 17:52:56 10° NNE visible
28 Nov 8.5 19:27:12 10° WNW 19:31:13 18° NW 19:33:26 15° NNW visible
29 Nov 6.4 17:06:25 10° SSW 17:12:47 86° ESE 17:18:51 10° NNE visible
29 Nov 8.3 18:51:57 10° W 18:56:43 22° NW 19:00:24 13° N visible
30 Nov 8.0 18:16:57 10° WSW 18:22:16 29° NW 18:27:19 10° NNE visible
01 Dec 7.6 17:42:08 10° WSW 17:47:55 37° NW 17:53:24 10° NNE visible
01 Dec 8.8 19:31:55 10° NW 19:32:51 10° NNW 19:33:46 10° NNW visible
02 Dec 7.2 17:07:30 10° SW 17:13:36 49° NW 17:19:23 10° NNE visible
02 Dec 8.7 18:55:29 10° WNW 18:58:12 13° NNW 19:00:52 10° N visible
03 Dec 8.5 18:19:52 10° WNW 18:23:38 16° NW 18:27:16 10° N visible
04 Dec 8.3 17:44:34 10° W 17:49:07 21° NW 17:53:30 10° N visible
05 Dec 8.0 17:09:30 10° WSW 17:14:41 27° NW 17:19:38 10° NNE visible
